STARLINK-3132 (49457 NORAD) Tracking and Keplerian Element Data

This shows tracking and keplerian element data for the satellite.

Feedback or suggestion? Click here.




ElementValue
Catalog49457
NameSTARLINK-3132
Epoch Orbit483
Epoch Day340.16667824
Epoch Year2021
RAAN20.9605
Inclination53.2191
Eccentricity0.0001893
Argument of Perigee27.3817
Mean Anonmoly39.0078
Mean Motion15.73183431
Decay Rate0.00020592
L11 49457U 21104BB 21340.16667824 .00020592 00000+0 15088-3 0 9999
L22 49457 53.2191 20.9605 0001893 27.3817 39.0078 15.73183431 4831

Live tracking and technical data element details for STARLINK-3132 (NORAD 49457). STARLINK-3132 can be tracked NOW for your location showing map with azimuth and elevation plus other details from your city location.

Track the satellite on the map from your city or location and see movement details for azimuth, elevation, latitude, longitude, range, height, and movement on the map or in text.







IsCatalogInMostPopularTable: catalog: 49457, numindb: 2
Update: records affected: 1



GetName: 49457 STARLINK-3132

Hit Count: updated at: Wed, 08 Dec 2021 15:38:36 GMT